Other Public Products
Issued by NWS Charleston, SC

Current Version | Previous Version | Graphics & Text | Print | Product List | Glossary On
Versions: 1 2 3 4 5 6 7 8 9 10 11 12 13 14 15 16 17 18 19 20 21 22 23 24 25 26 27 28 29 30 31 32 33 34 35 36 37 38 39 40 41 42 43 44 45 46 47 48 49 50
618 FPUS82 KCHS 271527 OPUCHS TEST...KCHS/KSAV Gateway Observations...TEST National Weather Service Charleston SC 1100 AM EDT MON MAR 27 2017 NOTE: "fair" indicates few or no clouds below 12,000 feet with no significant weather and/or obstructions to visibility. SCZ050-WAZ558-NCZ071-TXZ119-213-PAZ071-DCZ001-FLZ074-172-MI076- NYZ176-178-MAZ016-IL014-TNZ027-NJZ106-GAZ044-MD014-271600- ...Gateway Observations for Charleston International... CITY SKY/WX TMP DP RH WIND PRES REMARKS Chas Airport MOSUNNY 76 57 51 SW12G17 30.16R Seattle MOCLDY 45 42 89 S13 29.99R Charlotte CLOUDY 65 57 75 SW7 30.14R Dallas DFW PTSUNNY 59 51 75 NW12 29.92R Dallas Love MOSUNNY 61 51 70 NW14 29.92R Philladelphia CLOUDY 48 46 93 CALM 30.09F FOG Wash National CLOUDY 52 51 97 S9 30.08F Baltimore CLOUDY 51 51 100 CALM 30.07S FOG Miami PTSUNNY 82 62 50 E9 30.09S Detroit CLOUDY 56 52 86 W10 29.94S Newark DRIZZLE 42 42 100 NE6 30.08F FOG Laguardia CLOUDY 41 39 93 NE9 30.08F FOG J F K RAIN 46 46 100 CALM 30.10F VSB 1 Boston Logan FOG 39 39 100 E7 30.14F VSB 1/2 WCI 34 Ft. Lauderdale PTSUNNY 79 63 57 NE10 30.09R Chicago O`Hare FOG 47 45 93 E5 29.95R VSB 1/2 Chicago Midway CLOUDY 47 45 93 NE9 29.95R FOG Houston Bush PTSUNNY 76 68 76 S8 29.91R Houston Hobby MOSUNNY 77 70 79 S13G20 29.92R Nashville CLOUDY 70 61 73 S9 29.98F Atlanta CLOUDY 68 62 81 SW7 30.13S $$ GAZ044-118-TXZ119-213-NCZ071-DCZ001-MDZ014-506-PAZ021-071-NJZ106- NYZ176-178-MAZ106-OHZ011-021-055-MIZ076-KYZ091-ILZ014-INZ047- MNZ060-ONZ431-271600- ...Gateway Observations for Savannah International... CITY SKY/WX TMP DP RH WIND PRES REMARKS Savannah Arpt MOSUNNY 77 59 53 SW8 30.16R Atlanta CLOUDY 68 62 81 SW7 30.13S Charlotte CLOUDY 65 57 75 SW7 30.14R Dallas DFW PTSUNNY 59 51 75 NW12 29.92R Houston Bush PTSUNNY 76 68 76 S8 29.91R Wash National CLOUDY 52 51 97 S9 30.08F Wash Dulles CLOUDY 53 49 86 SW7 30.06F FOG Baltimore CLOUDY 51 51 100 CALM 30.07S FOG Philadelphia CLOUDY 48 46 93 CALM 30.09F FOG Newark DRIZZLE 42 42 100 NE6 30.08F FOG Laguardia CLOUDY 41 39 93 NE9 30.08F FOG J F K RAIN 46 46 100 CALM 30.10F VSB 1 Boston FOG 39 39 100 E7 30.14F VSB 1/2 WCI 34 Pittsburg PTSUNNY 58 50 75 W9 30.00R Akron CLOUDY 57 50 77 SW13 29.99R Cleveland CLOUDY 57 49 74 SW8 29.99S Cincinnati PTSUNNY 60 50 69 VRB3 30.01R Columbus MOSUNNY 59 50 73 W7 30.01S Detroit CLOUDY 56 52 86 W10 29.94S Chicago O`Hare FOG 47 45 93 E5 29.95R VSB 1/2 Minneapolis PTSUNNY 41 33 73 N3 29.97S Indianapolis PTSUNNY 58 51 78 SE8 29.95F Toronto Canada CLOUDY 50 48 93 S3 29.88R FOG $$

USA.gov is the U.S. government's official web portal to all federal, state and local government web resources and services.